ONEWEB-0571 (55150 NORAD) Tracking and Keplerian Element Data

This shows tracking and keplerian element data for the satellite.

Feedback or suggestion? Click here.




ElementValue
Catalog55150
NameONEWEB-0571
Epoch Orbit130
Epoch Day13.91667824
Epoch Year2023
RAAN284.14
Inclination86.513
Eccentricity0.0012884
Argument of Perigee210.4744
Mean Anonmoly65.3495
Mean Motion14.91738325
Decay Rate-0.00047428
L11 55150U 23004L 23013.91667824 -.00047428 00000+0 -47452-2 0 9997
L22 55150 86.5130 284.1400 0012884 210.4744 65.3495 14.91738325 1304



Live tracking and technical data element details for ONEWEB-0571 (NORAD 55150). ONEWEB-0571 can be tracked NOW for your location showing map with azimuth and elevation plus other details from your city location.







IsCatalogInMostPopularTable: catalog: 55150, numindb: 3
Update: records affected: 1



GetName: 55150 ONEWEB-0571

Hit Count: updated at: Tue, 07 Feb 2023 15:46:45 GMT